Location: Bijele Vode
(45.2833°N, 16.2000°E)
Time: 01:21:48
(UTC+00:00)

Cosmos 1437 - Pass Details

Date: 18 September 2020
Orbit: 365 x 369 km, 81.2° (Epoch: 26 October)

Event Time Altitude Azimuth Distance (km) Brightness Sun altitude
Rises 18:06:38 0° 344° (NNW) 2,258 6.9 -12.4°
Reaches altitude 10° 18:08:40 10° 338° (NNW) 1,401 5.9 -12.8°
Maximum altitude 18:11:36 48° 263° (W) 505 3.6 -13.3°
Drops below altitude 10° 18:14:31 10° 187° (S) 1,387 5.3 -13.8°
Enters shadow 18:17:13 -3° 181° (S) 2,528 6.5 -14.2°
